Simultaneous Nadir Overpasses (SNOs) Predictions

Prediction of SNOs between GOES-17 and TERRA Satellite Orbit:

Table of predicted SNOs for the next 14.0 days since TLE Epoch: 10/7/2023
Index Date Time (GOES-17) GOES-17 Lat,Lon TERRA Lat,Lon Distance(km) Time Diff (sec)
1 10/08/2023 16:43:09 0.01,-104.71 -0.91,-100.43 487.40 80
2 10/09/2023 05:03:26 -0.01,-104.69 -0.17,-105.35 75.59 80
3 10/11/2023 04:44:14 0.01,-104.69 0.70,-101.36 378.04 80
4 10/11/2023 17:04:22 -0.01,-104.71 0.30,-106.26 175.69 80
5 10/13/2023 16:50:29 -0.01,-104.72 -0.56,-102.27 278.81 80
6 10/14/2023 05:10:46 0.01,-104.70 -0.49,-107.20 283.31 80
7 10/16/2023 04:51:32 0.02,-104.70 0.34,-103.20 171.13 80
8 10/16/2023 17:11:39 -0.02,-104.71 0.70,-108.08 383.08 80
9 10/18/2023 16:57:44 -0.01,-104.71 -0.11,-104.07 71.77 80
10 10/19/2023 05:18:01 0.01,-104.70 -0.91,-109.01 489.88 80
